sat.trackr.live / text

‹ back to catalog

STARLINK-37037

NORAD 68084 · 2026-042R

PAYLOAD ACTIVE UNKNOWN

§ Identity

Operator
Country
US
Launch date
2026-03-04
Launch site
AFETR
Launch vehicle
Mass (kg)
RCS (m²)

Purposes: comms

External: N2YO · Heavens-Above · Gunter

§ Orbital elements

Epoch: 2026-09-19T14:18:36.673056Z

Period
93.85 min
Inclination
53.1617°
Eccentricity
0.0001354
Mean motion
15.34397505 rev/d
Perigee alt
461.8 km
Apogee alt
463.6 km
Semi-major
6,840.8 km
B*
5.1140e-4
RAAN
353.7519°
Arg perigee
84.1607°
Mean anomaly
275.9550°
Rev number
3,205

§ Raw data

STARLINK-370371 68084U 26042R   26262.59625779  .00016940  00000+0  51140-3 0  99912 68084  53.1617 353.7519 0001354  84.1607 275.9550 15.34397505 32058

JSON: /api/v1/satellites/68084 · /tle

For live sub-satellite position, see the globe view (requires WebGL).

§ Visibility from observer

Set your observer location to see the next 7 days of passes ≥ 10°. The values pass through the URL so the page stays shareable.

No JS? Fill the form by hand. The geolocation button needs JavaScript.